Location: Chagrin Falls Park
(41.4139°N, 81.3865°W)
Time: 03:13:47
(UTC+00:00)

Envisat - Pass Details

Date: 07 August 2021
Orbit: 764 x 766 km, 98.2° (Epoch: 22 September)

Event Time Altitude Azimuth Distance (km) Brightness Sun altitude
Rises 09:22:42 0° 33° (NNE) 3,240 7.6 -11.4°
Reaches altitude 10° 09:26:08 10° 57° (ENE) 2,307 7.1 -10.9°
Maximum altitude 09:28:51 14° 90° (E) 2,011 6.1 -10.4°
Drops below altitude 10° 09:31:33 10° 122° (ESE) 2,297 5.8 -10.0°
Sets 09:34:57 0° 147° (SSE) 3,217 6.3 -9.5°
